Home > Weather > Lillesand > Past weeks

Flag for Norway Past Weather in Lillesand, Norway — Yesterday and Last 2 Weeks

Now
48 °F

Cool.


Feels Like: 47 °F
Forecast: 52 / 60 °F
Wind: 3 mph from Northeast

Location: Kristiansand / Kjevik

Current Time: Jun 29, 2016 at 5:54:13 AM

Latest Report: Jun 29, 2016 at 5:00 AM


Visibility: N/A

Pressure: 29.86 "Hg

Humidity: 97%

Dew Point: 47 °F

Location of LillesandLocation

Past Weather in Lillesand — Graph

°F

Lillesand Temperature Yesterday

Maximum temperature yesterday: 64 °F (at 4:00 PM)
Minimum temperature yesterday: 51 °F (at 3:00 AM)
Average temperature yesterday: 58 °F

High & Low Weather Summary for the Past Weeks

 TemperatureHumidityPressure
High71 °F (Jun 17, 5:00 PM)98% (Jun 17, 5:00 AM)30.19 "Hg (Jun 17, 5:00 AM)
Low44 °F (Jun 14, 5:00 AM)32% (Jun 19, 1:00 PM)29.54 "Hg (Jun 15, 7:00 AM)
Average60 °F81%29.83 "Hg
* Reported Jun 14 3:00 AM — Jun 29 3:00 AM, Lillesand, Weather by CustomWeather, © 2016

Note: Actual official high and low records may vary slightly from our data, if they occured in-between our weather recording intervals... More about our weather records

Advertising

Lillesand Weather History for the Previous 24 Hours

Scroll right to see more
 ConditionsComfort  
Time TempWeatherWind HumidityBarometerVisibility
3:00 AM
Wed, Jun 29
48 °FCool.3 mph96%29.87 "HgN/A
2:00 AM50 °FCool.2 mph95%29.89 "HgN/A
1:00 AM52 °FCool.2 mph90%29.89 "HgN/A
12:00 AM55 °FCool.2 mph81%29.90 "HgN/A
11:00 PM
Tue, Jun 28
57 °FCool.3 mph77%29.90 "HgN/A
10:00 PM59 °FCool.5 mph74%29.90 "HgN/A
9:00 PM60 °FCool.7 mph70%29.90 "HgN/A
8:00 PM61 °FCool.8 mph69%29.90 "HgN/A
7:00 PM62 °FCool.8 mph70%29.90 "HgN/A
6:00 PM62 °FCool.7 mph65%29.91 "HgN/A
5:00 PM63 °FMild.8 mph63%29.91 "HgN/A
4:00 PM64 °FMild.9 mph62%29.91 "HgN/A
3:00 PM63 °FMild.6 mph66%29.92 "HgN/A
2:00 PM61 °FCool.5 mph70%29.93 "HgN/A
1:00 PM60 °FCool.8 mph72%29.93 "HgN/A
12:00 PM62 °FCool.7 mph64%29.92 "HgN/A
11:00 AM62 °FCool.5 mph62%29.92 "HgN/A
10:00 AM59 °FCool.6 mph63%29.91 "HgN/A
9:00 AM57 °FCool.5 mph70%29.91 "HgN/A
8:00 AM56 °FCool.2 mph70%29.91 "HgN/A
7:00 AM53 °FCool.1 mph78%29.90 "HgN/A
6:00 AM51 °FCool.1 mph83%29.90 "HgN/A
5:00 AM51 °FCool.5 mph83%29.89 "HgN/A
Weather by CustomWeather, © 2016

See weather overviewHow to use our weather pages